#timestamp,LO_Frequency,Hit,StdDev 
1683331215.9,286047002.1,N
1683331235.7,286047001.9,N
1683331255.6,286047004.1,N
1683331275.4,286047004.1,N
1683331295.3,286047004.1,N
1683331315.1,286047006.0,N
1683331316.0,286047006.0,N
1683331335.8,286047003.6,N
1683331355.7,286047005.7,N
1683331375.1,286047005.3,N
1683331376.0,286047005.3,N
1683331395.8,286047005.2,N
1683331415.7,286047005.2,N
1683331435.5,286047005.4,N
1683331455.3,286047004.6,N
1683331475.2,286047005.0,N
1683331495.0,286047005.2,Y
1683331495.9,286047005.2,P
1683331515.8,286047001.3,N
1683331535.6,286047002.5,N
1683331555.4,286047002.5,N
1683331575.3,286047002.4,N
1683331595.1,286047002.7,N
1683331615.9,286047002.3,N
1683331635.7,286047002.3,N
1683331655.5,286047002.0,N
1683331675.4,286047001.9,N
1683331695.2,286047001.8,N
1683331715.0,286047002.5,N
1683331715.9,286047002.5,N
1683331735.8,286047002.4,N
1683331755.6,286047002.7,Y
1683331775.5,286046998.5,P
1683331795.3,286047001.2,N
1683331815.1,286046998.5,N
1683331835.9,286047001.1,N
1683331855.7,286046998.1,N
1683331875.5,286046998.3,N
1683331895.4,286046998.4,N
1683331915.2,286047000.7,N
1683331935.0,286047000.7,N
1683331936.0,286047000.7,N
1683331955.8,286047000.5,N
1683331975.6,286046999.9,N
1683331995.5,286047000.0,N
1683332015.3,286047000.2,N
1683332035.1,286047002.7,N
1683332055.9,286046999.8,N
1683332075.7,286047000.5,N
1683332095.6,286047000.5,N
1683332115.4,286047000.2,N
1683332135.2,286047001.0,N
1683332155.1,286046998.3,N
1683332156.0,286046998.3,N
1683332175.8,286046998.1,N
1683332195.6,286047002.3,N
1683332215.5,286047002.1,N
1683332235.3,286047002.3,N
1683332255.1,286047000.3,N
1683332275.9,286046999.8,N
1683332295.7,286047002.7,N
1683332315.6,286047000.3,N
1683332335.4,286046999.8,N
1683332355.2,286047001.8,N
1683332375.1,286047002.0,N
1683332376.0,286047002.0,N
1683332395.8,286047001.9,N
1683332415.7,286047001.3,N
1683332435.5,286047002.9,N
1683332455.3,286047001.8,N
1683332475.2,286047002.1,N
1683332495.0,286047001.9,N
1683332495.9,286047001.9,N
1683332515.8,286047003.7,N
1683332535.6,286047001.5,N
1683332555.4,286047001.8,N
1683332575.3,286047002.0,N
1683332595.1,286047002.5,N
1683332615.9,286047002.5,N
1683332635.7,286047004.4,Y
1683332655.5,286047002.5,P
1683332675.4,286046999.8,N
1683332695.2,286047002.8,N
1683332715.0,286047002.7,N
1683332716.0,286047002.7,N
1683332735.8,286047000.1,N
1683332755.6,286046999.9,N
1683332775.5,286047000.8,N
1683332795.3,286047001.0,N
1683332815.1,286046998.4,N
1683332835.9,286047000.8,N
1683332855.7,286046998.4,N
1683332875.6,286046998.1,N
1683332895.4,286047001.0,N
1683332915.2,286047000.4,N
1683332935.1,286047002.0,N
1683332936.0,286047002.0,N
1683332955.8,286046999.7,N
1683332975.7,286047002.3,N
1683332995.5,286046999.7,N
1683333015.4,286047000.1,N
1683333035.2,286047000.2,N
1683333055.0,286046999.7,N
1683333055.9,286046999.7,N
1683333075.8,286047000.1,N
1683333095.6,286046999.8,N
1683333115.5,286047002.3,N
1683333135.3,286047000.0,N
1683333155.1,286047001.1,N
1683333175.9,286046998.9,N
1683333195.7,286046999.2,N
1683333215.5,286046999.1,N
1683333235.4,286046998.3,N
1683333255.2,286046998.5,N
1683333275.1,286047001.1,N
1683333276.0,286047001.1,N
1683333295.8,286047000.7,N
1683333315.6,286046998.2,N
1683333335.5,286047001.1,N
1683333355.3,286047000.5,N
1683333375.2,286047000.1,N
1683333395.9,286047000.2,N
1683333415.7,286047002.8,N
1683333435.6,286047000.6,N
1683333455.4,286047000.2,N
1683333475.2,286047002.0,N
1683333495.1,286047002.6,N
1683333496.0,286047002.6,N
1683333515.8,286047002.2,N
1683333535.7,286047002.0,N
1683333555.5,286047002.6,N
1683333575.3,286047002.4,N
1683333595.2,286047002.7,N
1683333615.0,286047002.2,N
1683333615.9,286047002.2,N
1683333635.8,286047002.2,N
1683333655.6,286047002.6,N
1683333675.4,286047001.9,N
1683333695.3,286047003.9,N
1683333715.1,286047001.8,N
1683333716.0,286047001.8,N
1683333735.8,286047004.3,Y
1683333755.7,286047000.7,P
1683333775.5,286046999.9,N
1683333795.4,286047000.1,N
1683333815.2,286047002.6,Y
1683333835.0,286047002.5,P
1683333835.9,286047002.5,N
1683333855.8,286047000.1,N
1683333875.6,286046999.9,N
1683333895.4,286046999.9,N
1683333915.3,286047000.5,N
1683333935.1,286047001.1,N
1683333955.9,286047000.8,N
1683333975.7,286046998.4,N
1683333995.5,286046998.2,N
1683334015.4,286046998.1,N
1683334035.2,286047000.1,N
1683334055.0,286047000.6,N
1683334055.9,286047000.6,N
1683334075.8,286047000.7,N
1683334095.6,286046998.2,N
1683334115.5,286047001.2,N
1683334135.3,286046998.1,N
1683334155.1,286047001.0,N
1683334175.9,286047000.3,N
1683334195.7,286047000.2,N
1683334215.5,286047002.4,N
1683334235.4,286046998.6,N
1683334255.2,286047000.9,N
1683334275.1,286046999.9,N
1683334276.0,286046999.9,N
1683334295.8,286047000.5,N
1683334315.6,286047000.1,N
1683334335.5,286047002.0,N
1683334355.3,286047003.7,N
1683334375.1,286047001.6,N
1683334395.9,286047002.2,N
1683334415.7,286047002.8,N
1683334435.6,286047000.4,N
1683334455.4,286046999.3,N
1683334475.2,286046998.2,N
1683334495.1,286047000.8,N
1683334496.0,286047000.8,N
1683334515.8,286047000.0,N
1683334535.6,286047000.0,N
1683334555.5,286047000.0,N
1683334575.3,286047002.1,N
1683334595.2,286047002.3,N
1683334615.9,286047002.8,N
1683334635.7,286047001.8,N
1683334655.6,286047001.7,N
1683334675.4,286047001.6,N
1683334695.2,286047001.3,N
1683334715.1,286047001.5,N
1683334716.0,286047001.5,N
1683334735.8,286047001.8,N
1683334755.7,286047001.6,N
1683334775.5,286047001.9,N
1683334795.3,286047002.7,N
